Greenville, MS

2:31 PM CDT on July 26, 2017 (GMT -0500)
Mid Delta Regional

Weather History for KGLH - August, 2013

Change the Weather History Date:

Monday, August 5, 2013

  Actual Average Record
Temperature  
Mean Temperature 85 °F 82 °F  
Max Temperature 96 °F 92 °F 102 °F (1964)
Min Temperature 74 °F 72 °F 59 °F (1948)
Degree Days  
Heating Degree Days 0 0  
Month to date heating degree days 0 0  
Since 1 June heating degree days 0 0  
Since 1 July heating degree days 0 0  
Cooling Degree Days 20 17  
Month to date cooling degree days 93 85  
Year to date cooling degree days 1312 1354  
Since 1 June cooling degree days 1029 1032  
Growing Degree Days 34 (Base 50)    
Moisture  
Dew Point 74 °F    
Average Humidity 72    
Maximum Humidity 94    
Minimum Humidity 49    
Precipitation  
Precipitation 0.02 in 0.07 in 1.43 in (1984)
Month to date precipitation 0.02 0.31  
Year to date precipitation 28.22 32.41  
Sea Level Pressure  
Sea Level Pressure 29.99 in    
Wind  
Wind Speed 4 mph (SSE)    
Max Wind Speed 24 mph    
Max Gust Speed 29 mph    
Visibility 9 miles    
Events Rain , Thunderstorm    
T = Trace of Precipitation, MM = Missing Value Source: NWS Daily Summary

Daily Weather History Graph

Daily Weather History Graph

Search for Another Location

Airport or City:

Trip Planner

Search our weather history database for the weather conditions in past years. The results will help you decide how hot, cold, wet, or windy it might be!

Date:

Astronomy

Aug. 05, 2013 Rise Set
Actual Time 6:19 AM CDT 7:59 PM CDT
Civil Twilight 5:52 AM CDT 8:26 PM CDT
Nautical Twilight 5:20 AM CDT 8:59 PM CDT
Astronomical Twilight 4:45 AM CDT 9:33 PM CDT
Moon 5:14 AM CDT (8/5) 7:02 PM CDT (8/5)
Length of Visible Light 14h 34m
Length of Day
13h 40m
Waning Crescent, 1% of the Moon is Illuminated
Aug 5
Waning Crescent
Aug 6
New
Aug 14
First Quarter
Aug 20
Full
Aug 28
Last Quarter

Hourly Weather History & Observations

Time (CDT) Temp. Heat Index Dew Point Humidity Pressure Visibility Wind Dir Wind Speed Gust Speed Precip Events Conditions
12:53 AM 78.1 °F - 73.9 °F 87% 30.04 in 10.0 mi Calm Calm - N/A   Clear
1:53 AM 75.0 °F - 73.0 °F 94% 30.03 in 10.0 mi North 3.5 mph - N/A   Clear
2:53 AM 73.9 °F - 72.0 °F 93% 30.03 in 7.0 mi Calm Calm - N/A   Clear
3:53 AM 75.0 °F - 73.0 °F 94% 30.03 in 6.0 mi Calm Calm - N/A   Clear
4:53 AM 75.9 °F - 73.0 °F 91% 30.02 in 7.0 mi Calm Calm - N/A   Mostly Cloudy
5:53 AM 75.9 °F - 73.0 °F 91% 30.03 in 7.0 mi Calm Calm - N/A   Clear
6:53 AM 77.0 °F - 73.9 °F 90% 30.04 in 7.0 mi Calm Calm - N/A   Clear
7:53 AM 79.0 °F - 75.0 °F 88% 30.03 in 8.0 mi Calm Calm - N/A   Clear
8:53 AM 81.0 °F 86.2 °F 73.9 °F 79% 30.03 in 10.0 mi SE 3.5 mph - N/A   Clear
9:53 AM 86.0 °F 95.1 °F 75.0 °F 70% 30.03 in 10.0 mi SSW 6.9 mph - N/A   Scattered Clouds
10:53 AM 89.1 °F 100.2 °F 75.9 °F 65% 30.03 in 10.0 mi SSW 6.9 mph - N/A   Clear
11:53 AM 91.9 °F 103.9 °F 75.9 °F 59% 30.02 in 10.0 mi WSW 5.8 mph - N/A   Clear
12:53 PM 93.9 °F 104.0 °F 73.9 °F 52% 30.01 in 10.0 mi SW 8.1 mph - N/A   Partly Cloudy
1:04 PM 95.0 °F 104.5 °F 73.4 °F 49% 29.99 in 10.0 mi West 11.5 mph - N/A Thunderstorm Clear
1:19 PM 93.2 °F 102.4 °F 73.4 °F 52% 29.98 in 10.0 mi West 9.2 mph - N/A   Scattered Clouds
1:53 PM 93.0 °F 100.7 °F 72.0 °F 50% 29.98 in 10.0 mi West 6.9 mph - N/A   Clear
2:34 PM 93.2 °F 102.4 °F 73.4 °F 52% 29.95 in 10.0 mi NNW 5.8 mph - N/A Thunderstorm Clear
2:53 PM 93.0 °F 101.9 °F 73.0 °F 52% 29.97 in 10.0 mi NNW 6.9 mph - N/A Thunderstorm Thunderstorm
3:22 PM 82.4 °F 88.2 °F 73.4 °F 74% 29.94 in 10.0 mi NNE 6.9 mph - 0.00 in Rain Light Rain
3:53 PM 87.1 °F 98.8 °F 77.0 °F 72% 29.95 in 10.0 mi ESE 3.5 mph - 0.00 in   Clear
4:53 PM 91.9 °F 103.9 °F 75.9 °F 59% 29.94 in 10.0 mi South 9.2 mph - N/A   Clear
5:53 PM 90.0 °F 100.2 °F 75.0 °F 61% 29.94 in 10.0 mi SSE 5.8 mph - N/A   Clear
6:49 PM 87.8 °F 97.6 °F 75.2 °F 66% 29.92 in 10.0 mi SE 5.8 mph - N/A Thunderstorm Partly Cloudy
6:53 PM 88.0 °F 100.2 °F 77.0 °F 70% 29.94 in 10.0 mi ESE 4.6 mph - N/A Thunderstorm Partly Cloudy
7:22 PM 80.6 °F 84.6 °F 71.6 °F 74% 29.97 in 10.0 mi NE 11.5 mph 26.5 mph N/A Thunderstorm Mostly Cloudy
7:53 PM 78.1 °F - 72.0 °F 81% 29.99 in 10.0 mi ENE 9.2 mph - N/A Thunderstorm Mostly Cloudy
8:27 PM 77.0 °F - 71.6 °F 83% 29.96 in 10.0 mi ENE 5.8 mph - 0.00 in Rain Light Rain
8:53 PM 75.9 °F - 73.0 °F 91% 29.98 in 10.0 mi ESE 5.8 mph - 0.02 in   Scattered Clouds
9:53 PM 77.0 °F - 73.9 °F 90% 29.97 in 10.0 mi Calm Calm - N/A   Scattered Clouds
10:53 PM 77.0 °F - 73.9 °F 90% 29.95 in 10.0 mi South 4.6 mph - N/A   Clear
11:53 PM 75.9 °F - 72.0 °F 87% 29.93 in 10.0 mi SSE 5.8 mph - N/A   Clear